GFSGBSN_250_spd_000.txt.gz
Wind_Speed
66 65 69 64 68 64 60 41 27 25 28 31 30 32 29 29 27 25 23 20 18 18 21 21 20 23 28 29 30 29 29 34 35 35 38 40 43 43 40 42 47 55 62 65 69 72 78
62 63 66 61 65 58 52 37 30 30 29 29 30 31 29 25 22 20 15 15 16 18 18 20 22 22 22 22 23 26 26 30 31 32 32 36 39 42 42 39 44 56 55 58 61 69 71
60 64 64 61 63 51 44 34 29 32 30 27 28 30 24 20 18 15 14 15 14 16 19 20 20 21 23 24 27 29 30 31 32 35 35 36 37 37 42 43 46 49 49 53 61 63 64
61 62 60 63 57 48 36 27 27 32 30 27 26 23 18 16 16 15 16 16 16 16 18 18 18 19 19 22 23 25 25 25 27 29 31 34 37 40 40 42 43 42 45 47 49 55 59
62 64 60 59 52 42 31 22 29 29 26 24 22 18 15 16 16 17 17 17 17 17 17 18 18 20 21 20 20 21 22 23 25 27 28 29 31 34 35 35 38 42 43 44 46 49 53
58 61 63 57 48 36 28 23 26 27 24 21 19 16 17 17 16 18 18 19 19 19 20 19 18 19 20 21 19 19 20 21 23 24 25 25 26 30 33 35 37 39 41 46 46 45 46
60 62 62 57 42 32 24 24 23 24 26 16 14 18 18 17 20 20 20 20 20 21 23 23 19 18 18 19 18 18 18 19 19 22 23 24 26 28 28 28 31 32 38 41 42 44 42
61 58 54 47 40 30 22 22 22 24 19 12 15 20 21 23 23 23 22 20 19 19 21 22 21 22 21 19 16 16 17 17 18 17 18 18 18 21 23 23 25 27 31 33 30 33 31
58 58 51 46 35 27 25 22 20 21 13 12 18 23 27 27 25 24 25 25 23 23 22 24 20 19 18 15 15 13 12 13 15 13 12 14 14 15 15 19 20 18 24 29 27 31 28
61 50 55 39 35 28 27 21 20 16 15 20 24 26 26 27 28 29 28 25 23 21 18 19 18 18 16 17 17 15 13 12 11 13 14 14 15 15 17 20 20 22 26 26 27 26 24
63 53 42 37 35 31 27 19 20 18 23 27 27 28 29 30 29 29 29 27 24 22 17 19 18 21 20 19 18 19 16 16 14 14 13 12 13 13 18 20 16 16 17 18 20 22 25
60 47 39 39 36 34 25 19 21 26 30 29 30 30 30 29 29 29 28 27 24 22 21 23 24 23 21 20 20 19 16 15 14 14 13 11 11 11 13 14 14 16 18 20 22 24 23
54 36 40 42 39 36 22 22 27 33 32 31 31 30 30 30 31 31 29 28 27 23 24 24 23 23 20 19 17 16 13 11 9 7 6 7 6 6 7 8 10 13 15 16 18 20 15
42 37 40 45 43 35 22 28 36 34 32 34 33 31 30 31 31 30 30 28 27 25 25 25 22 20 18 16 14 11 10 9 8 7 8 9 9 7 5 4 2 2 3 4 5 6 7
43 42 45 46 46 33 25 35 41 35 35 36 34 33 33 33 32 29 27 27 25 26 26 23 20 16 15 12 9 9 9 10 10 13 16 16 13 10 8 5 3 3 5 8 10 11 12
44 44 52 50 47 32 32 44 42 37 39 38 36 37 36 33 31 28 28 27 27 25 21 19 17 15 13 9 10 13 13 13 16 17 14 10 7 5 4 3 4 6 8 10 12 13 14
47 50 55 53 46 33 41 48 41 41 41 39 39 38 36 32 31 29 26 25 24 22 20 18 16 13 10 11 14 13 14 15 14 11 9 7 4 2 2 5 8 9 11 14 18 22 24
50 58 57 54 45 37 50 48 43 44 42 39 40 38 36 34 32 29 27 25 23 21 20 18 15 13 13 12 13 14 14 13 11 10 9 8 7 6 7 9 12 15 17 19 21 25 29
57 63 59 54 45 40 53 49 46 45 43 42 42 39 36 34 33 31 28 25 22 20 20 18 15 15 14 14 15 14 13 11 10 11 11 10 10 10 11 12 13 16 20 24 26 27 30
64 64 59 54 45 46 54 50 48 48 45 42 40 38 34 32 32 30 31 26 22 21 20 18 15 15 15 14 13 12 12 12 12 11 11 13 13 13 14 16 17 21 24 27 30 34 36
69 66 60 53 46 52 55 51 49 47 46 41 42 38 37 35 31 32 31 28 24 21 20 17 16 15 16 17 15 14 14 14 14 13 14 15 16 16 18 20 22 26 30 30 33 36 40
71 67 60 53 49 58 57 52 50 49 47 42 42 39 38 34 28 28 29 28 26 22 17 16 17 20 20 21 19 18 16 15 15 15 17 18 18 20 22 23 27 31 34 35 38 43 47
72 64 59 52 50 61 57 53 49 48 49 46 46 42 39 33 31 27 28 29 29 25 21 20 22 20 19 19 18 19 20 20 20 20 21 22 24 25 26 29 33 35 36 39 43 50 53
66 63 58 52 52 62 58 53 50 47 43 47 45 43 40 36 31 31 31 30 31 30 25 24 22 21 19 21 21 21 22 21 23 24 25 27 28 28 31 34 34 35 42 45 49 54 57
67 63 58 53 53 61 59 56 51 45 46 50 47 44 40 37 32 30 24 29 32 34 31 28 24 23 23 24 25 24 24 24 27 28 29 30 32 34 35 34 38 41 47 51 55 59 59
66 62 55 50 54 63 59 59 55 49 47 50 48 46 42 37 32 29 27 28 31 32 32 32 30 26 26 27 27 28 29 31 31 33 33 35 35 35 37 42 44 48 53 56 61 64 62
65 60 54 48 52 62 59 58 58 51 48 50 49 46 42 39 35 30 30 30 34 35 32 30 32 31 30 31 31 31 30 31 29 33 35 35 38 42 47 49 52 53 56 61 65 63 62
63 57 54 52 51 56 60 58 59 53 49 47 50 47 43 43 39 33 26 28 32 34 35 36 35 36 35 35 35 33 33 32 33 35 38 39 42 48 52 56 56 61 64 67 66 65 66
62 59 55 53 52 52 58 61 60 57 52 49 47 48 48 41 39 38 38 34 30 30 32 33 36 39 39 38 36 36 34 35 37 39 44 46 51 55 56 59 64 66 69 70 69 70 72

GFSGBSN_250_spd_003.txt.gz
Wind_Speed
82 79 80 81 70 68 65 71 74 65 61 56 41 34 34 34 34 31 29 27 25 22 22 25 28 30 31 29 30 32 34 34 35 33 33 31 30 33 34 31 32 38 49 56 63 67 69
89 81 75 75 68 65 66 67 66 61 56 50 34 32 33 35 34 27 25 22 17 17 20 21 26 27 26 26 27 28 28 29 30 29 28 26 27 30 34 34 37 38 40 46 56 61 67
94 87 72 69 63 64 64 60 62 54 53 44 31 31 33 35 29 23 21 16 16 18 20 25 24 23 22 23 25 27 29 27 27 29 31 30 28 31 32 35 39 35 33 39 45 49 53
89 84 70 67 60 58 56 54 57 51 50 40 27 29 35 30 24 21 17 15 15 16 20 23 23 22 21 25 27 29 28 29 29 30 31 29 28 28 29 33 34 34 35 34 37 41 45
86 82 62 64 58 56 53 50 51 45 44 30 26 30 30 24 20 16 16 16 17 18 21 21 21 21 22 23 23 23 24 25 23 23 23 24 25 26 27 30 35 36 35 36 37 39 41
81 74 55 58 57 52 45 46 44 41 37 27 29 26 23 19 16 16 16 19 20 20 21 20 21 20 21 22 22 23 24 26 27 27 27 29 29 30 32 33 33 33 36 38 40 38 37
77 67 54 52 49 49 41 45 38 36 30 29 27 19 18 16 14 17 21 23 23 23 22 22 21 20 20 21 22 23 22 21 21 22 22 24 25 26 25 27 32 35 36 36 35 33 37
71 65 53 49 49 46 38 35 35 33 28 27 19 15 15 16 20 23 23 24 23 24 23 23 22 22 21 20 21 22 23 23 22 23 23 23 24 25 25 26 29 31 30 28 25 27 30
68 60 54 49 49 48 36 31 33 32 28 21 16 14 19 21 22 22 21 22 22 22 22 21 20 20 21 21 19 19 19 19 19 19 19 24 23 22 20 20 21 23 23 21 20 22 25
66 62 52 51 45 45 31 28 32 31 24 17 15 17 24 23 24 26 26 24 22 20 20 20 18 17 18 19 18 16 15 14 15 18 19 18 17 16 16 17 19 20 21 18 18 19 20
67 61 53 50 44 43 29 27 35 28 19 14 16 20 23 26 28 27 28 26 25 23 20 19 16 21 19 18 18 18 18 19 16 16 17 16 17 14 16 17 17 19 20 20 17 17 15
71 64 51 50 47 40 26 31 36 25 17 17 20 25 28 29 29 29 29 27 26 24 21 19 17 20 19 18 18 18 16 15 15 15 14 15 15 13 13 12 14 16 16 17 17 15 11
68 64 52 48 48 41 30 37 36 23 21 23 28 29 30 29 30 28 28 28 26 23 19 20 20 19 18 18 18 17 17 17 16 15 14 14 12 13 13 14 14 12 10 9 6 3 6
66 62 51 49 48 37 36 41 34 23 28 30 32 32 31 29 28 27 28 27 26 24 24 23 22 22 23 21 19 18 19 18 16 13 13 13 13 11 9 6 4 2 3 3 3 1 2
62 58 51 51 45 38 43 44 33 27 34 33 36 34 31 30 30 29 28 25 26 25 25 27 26 24 20 17 16 14 14 14 12 12 13 12 12 11 10 9 6 5 2 2 3 4 7
60 52 51 53 46 47 48 44 32 36 37 38 37 34 32 33 32 31 29 25 23 24 28 27 22 18 17 15 12 13 13 13 14 17 18 16 13 10 7 4 3 2 4 5 8 11 14
50 55 56 47 49 52 52 43 35 42 40 39 37 34 35 35 34 32 28 26 25 29 27 22 19 18 16 11 11 13 13 16 19 17 14 11 9 7 3 1 3 5 8 10 12 14 17
54 55 55 53 53 56 53 42 41 45 40 39 38 36 37 37 34 31 29 28 30 28 23 21 18 16 11 11 13 15 15 17 16 14 13 9 6 4 4 5 7 8 11 14 16 17 20
58 57 57 57 61 58 52 43 49 47 40 40 39 39 39 36 33 32 31 31 29 25 23 21 18 13 12 14 16 16 17 16 15 14 11 9 8 8 9 10 11 11 14 17 20 23 24
60 64 62 64 64 59 50 46 53 47 43 43 42 40 39 35 33 32 30 28 25 24 23 21 17 15 14 13 14 17 17 16 15 12 11 11 13 13 13 13 14 16 18 23 26 28 28
65 65 64 68 65 59 51 50 55 48 44 43 40 40 40 33 33 33 30 28 25 24 23 21 18 17 17 15 16 17 18 18 16 14 15 16 16 16 17 18 18 20 23 27 28 28 32
66 67 72 70 65 60 52 54 54 48 45 43 42 43 41 40 38 34 32 29 26 24 23 22 19 20 19 17 16 16 16 14 14 15 17 19 19 20 22 23 24 26 28 31 29 32 38
70 68 75 70 64 61 53 56 53 48 46 44 43 43 42 37 35 33 34 32 29 25 25 25 22 21 19 17 17 17 16 18 21 21 21 23 24 24 27 26 26 32 35 32 34 40 44
69 75 76 70 63 62 53 55 55 48 49 48 45 43 42 38 37 36 33 34 32 28 26 25 23 20 18 18 19 20 20 22 22 22 24 27 28 28 30 30 31 37 39 34 40 47 49
72 78 76 69 63 60 54 56 55 49 50 50 46 44 43 41 40 34 31 31 32 33 31 30 26 23 23 23 24 24 23 25 24 25 27 29 31 33 34 36 35 38 39 43 48 52 54
70 77 73 66 62 58 55 58 55 52 52 49 47 46 44 44 38 32 30 27 29 33 34 33 32 29 26 24 24 26 26 27 27 30 33 34 36 37 37 35 37 41 46 49 52 56 59
74 77 68 64 60 58 58 58 55 51 52 52 52 50 48 44 39 32 31 31 33 33 33 33 33 33 32 30 29 29 30 32 32 35 37 36 35 36 39 39 37 45 50 55 58 59 64
74 71 66 60 57 57 59 60 55 51 48 49 49 49 48 45 42 37 36 33 35 34 33 33 33 33 33 34 34 34 34 35 36 37 38 39 40 42 43 45 44 52 54 59 63 64 68
71 67 65 57 57 56 58 59 56 51 49 49 50 50 50 48 45 42 38 36 34 36 33 33 35 37 38 38 38 39 40 40 40 40 43 41 44 45 49 52 54 58 61 64 65 67 71

GFSGBSN_250_spd_009.txt.gz
Wind_Speed
72 77 78 76 76 70 68 69 69 69 73 83 87 84 84 72 70 66 52 36 35 36 34 31 30 24 22 21 22 25 31 33 31 31 32 31 30 29 27 27 27 29 29 32 32 31 34
77 79 77 79 78 79 76 71 72 73 80 84 86 82 83 73 66 59 43 35 36 34 31 28 26 21 21 21 21 24 28 31 30 30 32 29 29 23 21 27 30 29 29 29 30 31 34
83 82 84 81 83 81 81 75 73 73 83 85 88 84 79 74 61 52 41 38 35 31 26 25 21 18 18 19 22 25 28 30 29 28 28 29 25 24 21 21 23 27 29 27 23 23 27
88 89 85 85 88 83 82 78 76 75 82 87 91 81 77 72 58 45 39 40 34 26 23 18 13 12 12 15 19 22 25 26 25 27 31 31 30 24 22 20 22 24 25 25 24 21 22
96 93 88 89 91 82 80 81 78 78 85 88 85 78 74 66 59 41 39 38 28 21 16 11 9 9 10 14 18 21 22 25 26 28 30 30 27 23 24 23 23 22 24 25 24 23 24
98 94 93 93 89 82 80 81 84 83 87 89 79 73 72 65 50 39 36 29 22 15 12 12 12 12 14 15 19 20 21 21 24 28 30 28 26 26 26 22 19 20 22 20 24 29 28
102 101 99 91 85 80 84 85 85 85 86 87 75 71 66 56 46 34 29 23 16 14 11 14 16 16 17 17 16 17 18 20 23 23 24 24 23 24 21 20 21 21 23 24 26 27 25
102 99 91 87 85 83 86 88 86 86 89 82 69 67 61 50 35 29 23 16 15 13 14 15 16 18 17 17 20 21 21 16 20 22 21 22 23 23 22 21 21 24 24 24 26 26 25
101 92 90 90 89 89 88 87 91 87 85 76 66 64 48 43 30 22 17 15 15 15 16 15 16 16 16 18 19 20 21 22 22 21 21 22 22 21 22 22 22 22 22 21 21 21 22
106 96 94 98 94 100 94 90 88 82 80 70 60 59 45 33 24 16 13 16 15 17 16 15 15 15 16 17 17 18 18 19 19 18 20 21 22 20 19 19 20 20 19 20 21 20 20
119 112 109 109 103 102 101 94 90 76 73 63 54 49 41 29 20 17 15 16 17 16 14 14 14 14 15 16 17 18 16 16 17 17 19 19 19 19 19 19 19 19 19 16 14 12 15
130 120 113 112 107 101 98 92 84 73 66 53 48 41 31 21 16 16 17 19 18 16 17 18 17 16 17 18 18 19 20 19 19 19 18 17 17 15 15 19 20 17 12 12 13 16 17
123 123 121 104 101 94 93 88 74 67 59 45 40 36 23 15 19 18 20 20 19 19 19 20 20 19 19 19 18 18 18 17 18 17 16 15 14 16 18 18 17 14 16 15 12 12 15
111 113 106 80 79 77 78 72 68 61 53 40 36 33 19 16 23 20 21 21 21 21 23 20 20 21 21 20 18 17 17 18 18 17 17 15 15 13 12 11 10 9 8 7 6 4 5
100 98 85 70 71 74 74 69 65 55 42 37 35 30 21 19 25 23 23 24 26 25 24 22 22 20 20 20 18 17 15 14 14 13 13 13 12 11 10 11 12 12 12 10 7 3 1
97 95 87 75 76 76 73 66 60 53 41 35 35 31 22 24 28 27 25 27 27 25 22 21 19 18 17 15 14 12 11 12 12 11 10 9 10 12 16 18 17 14 11 7 6 6 6
90 90 85 79 79 77 72 67 60 51 40 37 37 31 24 29 30 28 27 27 27 24 22 21 19 18 17 15 13 12 11 11 10 10 9 14 18 21 20 17 13 9 7 6 6 6 6
82 80 76 81 85 78 74 71 57 50 38 40 39 32 28 33 31 30 28 30 27 25 23 22 20 19 17 15 13 11 12 11 10 12 18 22 21 19 16 12 9 6 4 6 7 7 9
76 69 70 84 87 82 76 71 56 48 41 46 43 37 35 36 34 33 33 30 27 25 25 24 22 19 17 15 13 13 14 13 14 20 22 20 18 15 12 8 6 5 6 9 11 12 14
69 68 73 87 86 83 77 72 58 48 48 47 46 38 37 39 39 37 36 32 29 27 28 26 23 21 20 18 15 15 15 15 19 20 17 16 15 11 9 8 7 8 10 13 15 18 21
72 71 81 86 88 81 76 69 57 51 52 47 45 35 42 40 39 40 38 34 31 31 30 29 24 23 21 17 17 18 16 17 17 16 15 15 14 12 12 11 11 12 15 18 21 25 26
67 74 83 83 85 77 73 66 60 52 54 50 42 42 45 48 44 44 38 34 34 33 34 30 27 25 21 20 19 18 18 19 18 16 15 14 15 16 16 15 16 19 23 25 27 30 30
64 72 73 80 78 77 70 65 58 55 55 52 46 49 51 50 45 42 39 38 38 37 35 32 29 26 23 22 20 19 18 19 19 19 19 19 21 19 18 18 19 24 31 30 32 33 35
68 66 65 72 76 72 70 69 59 59 56 54 51 54 53 49 47 44 41 39 39 39 37 33 30 28 24 23 22 22 21 22 22 22 22 23 24 22 23 25 23 32 36 36 34 38 40
63 61 60 66 74 74 72 66 63 62 59 55 57 57 54 51 49 45 42 39 41 40 38 34 31 31 27 25 25 24 23 23 23 24 25 26 26 26 26 29 29 34 38 41 42 42 45
63 61 65 70 70 71 69 67 62 62 61 57 60 58 54 52 49 48 44 40 41 40 37 35 32 31 29 27 26 26 25 24 25 26 27 28 29 29 32 31 32 37 42 43 44 43 47
66 68 70 72 70 69 68 65 63 64 58 61 62 58 54 52 51 47 42 42 42 41 38 34 31 30 30 29 29 29 27 26 29 30 32 33 33 35 36 35 36 41 43 45 47 48 49
67 67 67 67 67 66 65 63 62 62 58 63 58 57 54 52 51 47 44 42 41 41 39 35 32 32 31 31 30 29 30 31 32 33 34 36 36 38 39 41 42 45 46 48 50 51 54
64 64 65 65 67 65 62 62 61 58 63 61 57 55 53 51 50 48 45 43 42 40 37 36 36 36 36 35 35 35 35 36 37 37 39 40 42 43 47 49 49 49 49 52 55 58 61

GFSGBSN_250_spd_015.txt.gz
Wind_Speed
61 59 62 63 60 58 57 56 59 62 62 64 63 69 68 76 78 81 80 75 77 75 82 82 77 58 47 36 29 24 21 20 23 23 30 33 35 37 34 30 31 26 28 24 30 32 31
62 63 64 65 61 63 59 58 61 64 66 63 66 70 69 78 80 81 80 76 78 80 85 80 74 58 43 33 27 20 19 17 18 22 23 28 29 29 28 27 26 26 28 28 29 32 30
69 72 71 68 65 64 63 63 65 65 65 62 65 69 72 78 80 82 78 78 79 81 86 82 69 55 39 27 22 17 17 17 19 23 25 26 24 21 24 29 28 28 27 29 26 27 22
75 77 76 73 71 69 68 67 67 69 68 66 67 71 73 80 80 81 75 79 79 78 86 80 64 49 31 25 20 14 15 16 19 25 25 26 27 28 33 33 31 32 31 28 29 27 22
81 82 81 76 73 74 74 72 72 69 67 68 68 73 76 78 77 82 77 78 80 79 82 76 60 41 28 23 17 13 15 17 20 24 25 25 27 33 34 32 31 32 32 31 30 28 28
83 82 80 75 77 76 77 72 70 67 67 69 72 76 78 78 80 80 79 79 79 79 77 74 53 34 24 18 12 12 18 20 21 24 24 25 30 34 34 33 33 32 30 27 29 31 33
85 83 82 81 82 80 77 70 70 71 72 74 75 76 78 79 83 75 76 79 78 78 75 69 48 30 22 14 10 9 18 22 23 24 23 26 34 38 38 37 31 29 29 30 27 27 28
87 84 81 79 79 77 76 76 74 74 76 77 77 75 79 80 81 79 79 76 78 74 74 62 43 28 20 14 10 11 15 20 24 25 25 30 33 36 33 31 29 27 27 26 26 27 28
91 90 86 84 85 81 82 82 82 82 77 79 79 78 78 78 78 78 80 77 73 74 71 53 38 23 19 15 12 14 14 17 21 25 31 33 35 34 33 31 28 27 27 26 25 25 26
96 96 93 89 88 87 86 91 85 84 82 78 80 79 78 79 76 78 78 78 72 73 66 48 32 22 20 16 15 17 18 20 20 23 29 35 34 33 32 28 27 28 27 27 27 26 25
100 97 98 95 92 92 92 95 90 85 82 80 81 80 81 79 80 78 79 79 71 71 59 43 28 22 21 18 16 17 20 23 26 25 24 25 30 31 30 29 27 28 26 26 26 23 28
109 106 102 98 98 93 95 97 91 87 83 81 81 81 79 78 82 79 78 79 71 71 66 43 28 25 22 18 19 18 18 23 25 26 28 31 27 25 25 25 26 26 27 28 27 24 23
110 112 108 97 87 94 96 93 92 88 83 80 81 76 78 78 81 78 78 78 76 65 59 39 27 26 23 20 19 21 23 22 26 26 25 24 25 25 26 27 28 29 27 23 24 23 19
114 105 97 95 91 90 89 91 88 84 84 84 81 81 78 81 81 78 75 77 73 69 58 34 25 26 24 21 20 21 22 25 25 26 26 24 25 26 26 25 25 23 21 22 20 19 17
118 115 111 105 98 94 95 92 87 87 87 88 86 85 81 81 81 76 72 75 74 69 50 30 26 27 26 22 20 20 21 23 24 25 27 27 26 24 23 21 20 19 18 19 19 16 14
116 117 121 120 114 108 105 100 97 93 92 92 89 88 85 83 80 74 73 75 72 64 40 28 27 26 23 21 19 19 19 19 19 20 21 22 21 21 21 21 20 19 17 16 16 14 14
117 113 113 120 123 116 111 108 106 104 98 98 89 85 83 83 77 74 72 75 70 52 36 28 26 23 21 18 18 18 17 18 18 18 20 22 22 21 21 20 19 19 19 18 17 17 17
104 106 110 116 119 122 116 113 110 103 104 96 89 86 81 82 77 75 73 77 65 43 31 28 27 24 22 22 23 22 21 20 21 21 21 21 22 23 22 21 21 20 18 17 16 15 13
88 93 97 101 110 115 113 113 108 103 100 94 90 90 84 82 76 75 80 74 50 42 32 32 28 26 25 25 25 23 21 21 21 20 20 21 22 22 23 24 23 20 20 19 18 17 16
83 83 86 88 92 100 104 106 104 98 96 96 96 88 85 79 79 77 68 55 45 40 34 33 30 29 28 27 25 23 22 21 19 19 20 23 24 25 25 22 23 22 21 21 19 19 20
70 75 79 83 86 89 88 91 94 95 98 94 89 83 79 77 65 61 57 47 45 39 37 34 33 32 30 29 26 24 23 21 21 21 23 25 27 27 25 25 22 21 22 23 23 23 24
58 62 68 75 84 87 78 80 79 83 89 84 83 78 74 66 61 56 50 48 45 43 40 37 37 34 31 30 27 24 22 20 21 22 26 27 28 27 27 26 24 24 26 25 26 26 28
56 61 66 73 79 80 78 71 75 77 67 71 74 68 62 53 58 55 48 46 46 43 40 38 36 33 34 32 29 26 23 21 23 26 28 28 28 29 30 28 27 28 29 27 29 32 32
57 61 66 69 74 71 72 71 70 64 62 63 63 65 54 60 57 52 49 50 49 45 42 40 37 36 36 33 31 28 25 22 24 30 32 31 29 31 33 31 30 34 33 32 33 35 37
58 60 64 67 69 71 68 72 65 63 64 64 65 59 64 64 60 57 52 50 51 48 44 41 39 38 36 33 31 28 24 25 27 30 33 33 32 33 34 36 36 36 37 38 38 41 41
57 57 58 60 61 61 65 64 65 69 67 65 62 61 68 61 59 58 53 54 49 46 46 41 40 38 37 34 31 30 26 26 29 31 33 33 33 34 36 37 38 39 39 40 43 43 45
53 54 56 57 59 66 66 65 69 67 68 68 65 66 67 63 62 58 52 52 52 48 49 43 42 39 39 36 33 31 30 29 31 32 33 34 35 37 37 38 39 40 42 42 44 47 48
48 52 57 62 69 70 69 72 69 70 69 65 65 68 63 64 59 54 54 55 53 49 48 44 42 38 40 38 34 34 34 34 34 34 35 36 37 39 40 41 41 41 43 46 47 50 53
60 64 63 63 64 67 69 69 71 71 69 68 66 64 61 60 55 51 55 54 52 54 54 47 44 42 40 37 37 35 36 37 37 37 37 37 39 40 42 42 42 43 47 49 52 54 54

GFSGBSN_250_spd_021.txt.gz
Wind_Speed
72 69 67 65 61 64 64 66 64 59 58 55 60 56 55 53 58 63 65 60 61 59 64 68 70 76 73 82 75 53 43 34 24 16 13 7 14 27 37 38 36 29 30 39 41 35 41
73 74 71 67 67 67 64 63 71 61 58 56 60 58 55 58 61 64 66 63 60 60 63 67 70 76 73 79 71 51 43 33 22 14 12 6 15 22 28 31 32 32 34 42 36 42 38
78 78 75 71 70 68 67 64 61 60 54 57 62 58 57 65 65 66 66 64 60 60 63 67 71 75 73 77 66 49 41 32 19 12 10 8 19 26 28 29 30 26 33 39 40 32 35
74 71 73 71 69 69 69 67 61 60 60 64 68 58 56 64 65 65 63 64 59 58 62 64 70 70 72 73 65 46 38 30 17 11 10 8 20 32 30 34 38 34 33 36 36 36 39
75 73 69 69 69 70 70 71 69 63 61 65 63 59 63 65 67 65 64 59 56 57 62 64 66 69 69 70 64 43 33 28 16 10 7 9 18 25 30 32 33 36 36 37 40 41 33
79 78 72 68 70 72 73 71 65 64 63 64 64 65 61 66 66 66 65 58 55 58 61 63 62 61 67 66 57 40 30 26 17 12 6 10 18 23 29 30 33 43 40 42 42 29 29
80 79 81 76 72 72 68 70 72 69 64 63 63 62 67 65 65 66 64 57 56 59 60 60 59 62 63 60 55 38 27 23 16 11 5 11 19 26 29 32 39 43 45 41 32 30 24
92 81 79 81 80 76 73 70 70 70 70 68 66 65 66 66 68 65 62 57 56 58 59 59 59 56 60 58 57 36 26 22 15 11 9 12 19 24 28 33 39 37 35 29 27 25 23
99 96 91 88 85 81 78 77 74 68 70 72 71 68 68 67 67 64 63 57 55 56 57 58 57 56 58 58 58 38 25 19 15 16 13 13 15 18 24 28 38 33 32 28 26 25 26
105 100 91 89 86 88 83 82 79 82 74 71 69 70 69 68 68 65 61 62 57 59 54 57 56 56 57 60 56 34 25 18 14 13 16 19 17 19 22 25 29 27 27 24 26 25 26
101 104 97 96 90 87 86 86 83 81 76 74 75 77 74 66 68 65 63 61 56 59 54 57 58 55 57 57 50 32 26 18 17 14 14 14 15 16 18 17 24 25 21 22 21 25 27
108 107 102 99 94 93 91 87 84 81 80 76 75 74 71 69 70 64 64 63 58 55 55 55 54 53 54 54 52 36 26 17 18 15 15 13 13 17 20 22 20 22 24 24 24 27 28
108 113 107 109 105 97 94 91 89 86 80 80 74 72 72 70 75 65 65 63 58 48 54 55 50 51 51 55 52 39 24 19 17 14 20 18 13 17 18 22 26 22 25 25 25 27 29
115 116 116 108 106 107 101 97 93 88 86 82 81 79 76 74 71 71 69 65 54 53 59 54 50 48 47 51 48 41 25 19 21 20 13 17 17 18 20 25 26 31 27 25 27 28 30
117 119 116 108 109 108 109 105 101 93 90 88 83 78 73 78 76 76 72 63 55 59 61 52 50 50 48 52 44 46 28 22 22 20 16 25 23 26 27 27 30 28 27 27 28 29 30
117 115 115 117 110 111 109 111 108 104 95 94 87 82 81 83 77 76 71 59 54 63 59 53 50 48 49 49 44 43 33 24 21 20 20 23 33 28 28 25 27 26 28 26 26 28 28
111 114 118 119 116 110 104 106 114 112 104 95 92 87 85 90 83 80 64 57 58 66 55 50 48 47 51 51 39 38 32 25 23 19 22 26 30 33 32 31 29 29 28 26 24 24 24
98 105 110 115 118 114 111 107 100 106 107 100 90 83 89 89 85 75 65 60 61 65 53 51 50 50 52 51 37 35 28 25 22 18 20 22 23 26 25 24 27 26 23 22 24 23 24
90 94 103 110 114 122 113 112 105 104 100 101 98 92 95 94 83 73 66 62 66 62 55 52 53 54 52 51 41 33 25 27 24 19 22 21 24 25 23 26 24 23 21 25 25 26 28
83 82 89 96 107 112 120 117 113 111 102 101 100 99 100 97 79 74 66 60 60 54 51 53 55 56 54 51 40 33 27 30 25 25 24 25 27 27 27 28 23 24 25 27 27 30 27
74 74 78 83 95 102 113 121 115 113 108 110 103 99 95 86 72 64 63 63 61 57 54 57 60 57 55 49 43 35 27 31 27 26 24 27 29 28 27 28 25 26 27 28 29 31 25
66 67 71 75 81 91 106 107 116 116 114 114 96 86 85 78 79 77 67 64 66 60 62 60 61 59 52 47 38 34 29 34 28 26 26 27 28 28 29 28 26 28 30 31 31 28 28
58 61 66 71 77 81 91 105 107 110 112 109 96 90 85 87 78 71 63 68 68 65 62 62 62 59 52 48 39 34 34 36 27 28 28 28 30 29 29 29 30 30 33 28 28 27 27
54 57 63 65 69 75 79 87 96 102 100 91 94 94 89 88 81 70 73 74 70 65 65 64 60 58 52 48 42 36 35 35 28 23 26 31 28 27 28 28 28 32 30 29 30 29 29
48 55 55 57 65 67 71 78 84 85 85 88 93 93 92 88 84 82 77 75 76 69 69 68 61 61 53 51 41 37 37 37 35 36 31 31 26 28 29 29 30 31 32 31 33 32 35
48 49 49 54 57 62 67 70 71 73 74 80 84 92 90 88 83 80 83 80 75 71 67 62 60 61 49 51 42 41 40 40 38 38 36 29 26 28 30 30 31 31 35 36 35 35 41
43 45 49 52 56 61 64 66 66 65 62 68 70 74 79 83 82 81 77 73 75 71 64 60 47 58 56 45 41 41 42 41 40 39 35 31 30 30 29 33 35 33 37 36 38 40 44
43 45 48 51 56 58 60 62 58 55 54 55 59 69 76 74 73 73 73 71 69 64 56 54 53 54 47 42 43 45 45 43 42 40 39 35 33 30 31 33 38 39 40 41 41 42 46
42 45 49 53 55 57 59 59 56 56 54 54 55 60 69 73 76 77 71 71 63 52 50 44 58 53 47 46 48 45 46 43 43 41 41 38 36 33 33 34 37 37 38 41 42 47 47

GFSGBSN_250_spd_027.txt.gz
Wind_Speed
62 63 65 60 61 66 68 74 63 61 63 64 61 61 59 58 56 55 57 50 49 56 58 57 53 55 56 62 67 70 77 79 75 61 51 43 35 21 9 12 13 23 22 18 16 13 18
51 62 64 61 61 60 58 57 60 62 55 58 57 59 59 58 58 56 55 53 48 51 57 52 51 55 56 59 64 71 75 78 76 58 49 41 31 21 12 10 17 22 19 20 23 20 25
63 58 61 59 55 60 54 55 60 58 60 61 61 62 60 60 57 56 59 56 49 47 54 50 51 52 54 59 62 68 71 76 74 57 45 38 29 21 7 13 16 13 18 18 17 25 32
76 77 67 67 68 67 63 58 50 58 59 59 61 61 62 60 58 57 56 54 50 51 51 51 50 54 53 56 62 63 68 73 72 55 41 33 26 19 6 18 15 20 23 18 22 28 36
84 80 78 77 72 71 66 70 63 55 53 57 59 61 64 62 63 60 60 57 51 47 51 52 54 50 51 56 60 61 66 71 69 55 38 31 24 15 7 15 19 20 25 23 25 28 39
88 88 85 80 76 75 73 73 73 64 62 60 61 58 62 65 61 65 63 59 56 56 55 56 52 52 52 54 57 60 62 68 66 53 36 28 21 15 5 18 21 25 24 25 30 33 35
92 88 88 83 81 83 81 79 83 75 70 71 63 59 59 65 61 57 58 54 53 53 54 52 50 53 53 53 56 57 59 62 61 51 32 26 19 15 8 12 15 20 20 25 29 29 35
98 96 98 93 88 88 93 90 87 83 78 80 74 64 60 61 62 56 54 47 50 52 52 50 50 53 50 50 52 52 56 58 56 45 31 28 16 12 10 14 15 22 24 27 33 29 24
123 120 120 118 113 106 101 99 94 90 84 81 82 75 72 64 63 61 54 49 53 44 47 48 48 48 46 47 49 47 51 56 55 44 28 26 17 12 11 11 17 22 26 30 30 34 29
128 125 125 122 111 125 122 118 107 96 93 87 86 87 80 69 62 62 55 54 53 50 46 46 46 46 45 48 44 44 48 56 52 43 27 21 19 12 10 10 14 18 25 31 31 36 27
131 129 121 115 109 102 113 111 120 112 104 98 91 88 84 70 63 60 62 59 58 57 48 47 43 47 46 46 42 43 47 53 49 44 28 19 17 10 9 12 12 18 19 24 27 36 35
120 115 113 109 105 101 96 98 105 107 107 109 100 96 92 75 69 63 64 66 60 56 51 44 47 49 44 43 40 42 45 51 49 44 32 20 17 12 9 10 15 17 21 22 25 31 30
113 111 107 107 107 99 93 92 96 96 99 103 108 106 90 82 75 67 68 66 62 54 52 51 50 48 40 41 39 41 44 45 47 44 35 21 17 14 13 10 13 16 18 25 27 32 30
105 106 107 107 105 102 95 92 93 92 95 93 97 100 87 85 82 75 73 71 61 55 51 49 50 45 38 43 39 42 43 43 42 39 37 25 18 15 17 15 13 15 19 25 29 31 29
100 100 97 99 103 102 101 93 95 93 95 95 95 91 88 89 87 84 79 72 63 55 54 52 50 40 42 44 41 43 46 41 43 43 41 29 22 19 20 17 15 17 19 21 27 29 29
89 93 95 94 95 98 101 99 93 96 95 94 98 97 88 92 89 88 84 75 65 61 58 54 49 45 46 46 42 43 46 44 44 44 44 35 25 21 20 24 21 15 18 22 26 26 28
83 85 88 91 91 92 94 99 99 96 100 102 101 100 90 95 98 94 79 75 68 68 66 57 49 42 44 45 44 45 47 48 44 43 43 38 26 22 22 24 21 21 20 21 22 26 26
82 80 82 84 85 88 90 96 103 100 99 106 104 100 94 97 100 88 80 74 74 73 72 61 53 48 45 48 45 45 48 49 47 42 42 38 26 23 24 20 22 24 25 23 25 30 31
80 79 80 78 79 83 87 92 100 100 96 103 106 103 105 104 98 81 80 79 77 76 71 62 55 51 49 48 47 47 51 46 42 40 39 36 29 23 22 23 22 26 25 27 25 25 27
75 76 77 74 76 79 84 87 92 99 100 103 106 112 109 110 88 84 82 82 78 77 73 64 55 49 49 48 47 47 49 45 40 41 38 33 31 27 23 20 19 25 25 22 23 23 24
71 72 75 72 73 76 81 83 89 95 99 104 105 107 105 102 89 85 82 81 78 80 73 64 57 48 48 50 51 48 47 45 41 42 37 34 29 30 26 20 20 22 23 24 23 24 23
64 67 70 68 71 73 76 82 87 92 100 103 101 101 102 96 92 89 83 75 71 76 73 64 59 51 54 52 51 49 47 46 45 42 39 35 31 28 27 26 23 22 25 26 22 22 22
58 61 67 66 67 68 72 78 85 92 98 90 90 99 100 100 97 94 82 78 74 76 73 67 61 54 57 50 52 47 47 47 47 44 39 36 33 28 28 27 25 23 29 22 21 22 25
52 59 62 61 63 65 68 75 83 88 85 80 84 92 100 98 100 85 84 81 75 74 71 70 63 58 55 53 50 49 50 48 49 45 44 37 32 30 30 26 25 31 25 25 26 26 27
50 56 57 57 58 61 66 70 76 80 81 77 82 82 92 94 99 97 88 85 81 79 72 71 68 65 66 58 54 50 49 47 47 46 47 39 38 33 31 27 26 29 26 27 26 26 28
47 50 52 53 56 59 62 67 72 75 78 71 77 80 83 91 98 103 93 89 81 84 76 69 63 67 63 55 50 48 47 47 48 48 49 43 40 37 31 29 28 34 27 29 26 26 30
43 46 49 50 52 55 60 64 66 70 71 71 72 75 80 79 94 98 95 92 85 88 75 68 58 57 55 54 55 52 49 50 50 51 49 46 39 35 34 30 32 37 32 31 31 34 30
41 43 45 47 51 56 61 63 64 65 65 67 67 68 71 77 90 93 97 94 90 87 73 65 63 60 56 56 56 54 52 53 54 52 52 45 40 37 36 33 37 38 36 35 37 37 35
40 42 45 48 50 54 57 60 60 59 61 66 65 67 74 82 81 87 92 91 88 83 77 71 64 63 59 60 61 62 61 58 54 54 53 45 45 40 37 37 39 42 41 40 41 41 41

GFSGBSN_250_spd_030.txt.gz
Wind_Speed
48 50 46 50 40 47 54 54 57 58 64 68 70 69 67 63 65 62 51 50 54 58 55 52 48 47 53 56 56 61 66 72 76 79 81 81 66 56 42 21 7 6 9 9 14 16 15
58 57 50 56 49 49 39 48 55 52 50 54 59 61 56 56 59 60 59 58 58 55 54 50 52 50 54 56 55 60 65 68 73 75 79 77 61 51 36 17 9 9 10 8 11 13 20
67 59 64 57 55 51 52 48 48 54 44 45 48 49 48 49 49 50 54 53 55 53 57 53 52 48 52 54 57 61 63 67 69 72 75 75 56 48 33 12 3 12 15 15 9 11 16
69 72 68 66 64 57 56 57 52 51 51 54 54 53 53 48 51 51 53 53 58 59 60 58 53 55 53 57 59 59 60 64 65 67 73 71 51 43 27 6 2 5 14 14 15 18 20
71 72 72 72 71 63 62 62 63 63 60 60 60 56 48 45 45 48 48 51 54 57 59 61 55 55 56 53 53 55 57 60 63 63 70 66 47 38 22 4 5 5 13 11 11 11 19
76 74 77 78 78 76 74 72 71 67 67 65 64 65 59 53 52 50 49 52 48 51 52 53 54 49 48 49 50 53 53 55 59 59 66 63 43 34 18 8 10 10 7 8 11 7 16
87 86 82 83 78 79 81 79 79 82 77 68 65 67 65 60 56 55 50 53 47 49 52 45 45 43 45 45 46 50 50 50 56 53 61 61 39 29 18 8 13 9 12 12 15 14 21
106 102 100 94 94 92 94 93 93 90 84 77 68 71 69 67 64 64 63 53 51 50 49 48 41 43 39 41 45 44 47 48 52 51 58 54 37 25 21 12 10 13 14 16 16 19 14
109 109 109 107 110 106 97 94 94 93 86 78 76 72 75 71 73 70 65 61 64 56 49 51 44 47 42 44 42 42 45 47 49 49 58 50 41 25 23 12 13 15 16 15 16 20 17
124 121 118 116 115 110 107 103 101 92 86 84 83 81 80 77 82 79 68 67 67 64 55 50 47 46 42 44 40 40 47 45 43 45 53 49 49 26 23 15 10 11 14 18 20 21 25
141 140 138 136 132 127 124 126 122 114 107 100 98 100 101 96 99 98 83 76 72 70 53 54 48 44 46 44 39 42 45 43 40 42 50 50 50 26 21 19 11 11 11 17 20 23 26
124 128 127 127 129 135 128 129 123 114 121 116 120 116 110 106 109 101 91 82 76 75 63 54 49 49 48 47 42 43 40 38 38 40 46 50 45 35 23 21 15 14 14 16 21 24 26
112 112 117 115 117 122 119 118 117 113 112 105 105 102 100 107 112 106 102 96 84 73 66 54 52 51 50 46 43 44 39 40 37 39 45 49 48 44 25 23 19 16 17 20 21 23 25
105 108 109 109 108 105 106 110 111 106 106 100 99 98 94 95 103 95 103 97 91 76 73 62 59 54 50 45 42 41 39 37 37 40 42 48 47 44 33 25 23 17 16 20 23 24 25
97 99 99 99 100 101 104 102 104 106 102 96 95 92 85 91 96 95 94 93 83 70 67 61 57 57 54 48 44 42 41 38 40 40 43 44 44 48 41 25 24 21 14 15 18 21 24
89 91 92 90 92 95 97 99 100 99 99 96 93 88 83 87 95 96 92 80 75 71 70 66 59 58 51 45 43 43 45 42 40 39 42 45 46 50 43 28 24 20 19 16 19 22 22
86 86 88 88 86 88 91 94 95 97 101 97 96 89 81 86 97 98 83 75 73 72 71 71 64 60 54 47 47 43 40 39 39 43 43 45 45 45 42 29 21 18 23 22 17 22 26
81 83 86 85 84 84 85 87 92 94 96 98 95 85 86 93 97 89 79 77 76 75 75 76 66 60 51 49 47 45 38 40 40 43 42 43 47 44 42 30 23 20 23 25 26 28 28
75 81 82 83 82 83 82 84 86 90 96 90 90 83 93 98 94 85 75 77 76 78 75 73 67 61 55 53 52 47 46 42 43 43 44 43 45 43 40 31 25 20 19 22 31 32 30
69 73 78 81 80 82 78 79 82 85 90 89 90 93 101 95 81 83 79 75 75 76 74 69 65 61 56 54 56 50 45 45 46 43 43 42 43 42 40 33 21 21 22 23 22 26 27
66 69 71 76 76 79 76 75 79 82 88 89 89 89 89 79 78 80 79 75 76 77 73 66 63 60 58 55 53 51 47 47 45 44 42 43 45 44 39 34 24 19 23 23 22 24 24
61 63 64 68 73 76 73 71 77 81 86 88 86 81 81 78 83 87 82 71 70 77 70 60 59 58 59 53 53 51 49 47 45 43 44 45 42 44 42 38 34 20 21 25 28 26 25
54 55 57 61 67 71 69 69 73 77 82 80 77 76 78 77 82 87 78 75 72 73 67 59 60 63 57 56 59 56 52 46 46 45 45 42 46 51 47 38 33 23 30 23 25 23 24
47 49 52 56 60 64 64 65 70 70 71 75 75 76 72 75 81 77 84 80 75 72 70 65 61 60 58 62 61 59 53 51 48 44 42 44 50 49 46 41 34 33 29 25 23 27 24
41 43 46 49 54 58 59 60 65 65 70 76 75 72 71 78 83 86 87 78 77 79 73 69 62 62 63 62 64 59 53 48 44 45 45 44 47 49 48 42 37 31 34 26 20 23 24
36 40 42 45 49 51 55 58 61 59 70 75 71 72 73 78 85 86 87 84 77 74 77 68 69 68 65 63 65 58 53 48 48 47 45 45 49 50 50 43 39 36 34 31 26 24 32
34 37 40 43 47 50 54 56 56 60 66 70 68 70 72 77 88 85 86 85 79 77 75 70 69 75 74 62 57 52 47 48 53 49 48 49 48 50 49 43 38 37 39 32 28 40 34
34 38 40 43 45 48 51 53 54 57 62 66 67 69 72 76 86 88 91 87 80 78 77 72 76 71 69 61 52 45 38 46 50 49 49 51 52 50 52 45 43 42 37 38 39 38 35
32 34 37 39 42 45 48 49 51 55 60 63 64 68 72 77 81 87 93 89 83 80 84 80 71 65 61 58 54 48 43 43 48 51 52 52 55 54 54 52 49 48 43 40 41 40 38

GFSGBSN_250_spd_033.txt.gz
Wind_Speed
62 64 58 55 47 48 41 36 33 36 42 47 50 50 53 54 55 57 61 58 56 59 54 53 55 54 52 54 59 60 62 63 64 66 67 69 72 76 69 59 41 21 6 5 8 6 11
63 62 64 61 50 52 50 52 48 42 34 38 45 46 43 44 48 48 51 48 45 46 48 52 50 52 51 54 57 57 60 60 58 61 64 65 67 71 63 55 34 14 5 9 10 12 12
70 68 67 67 65 59 59 57 56 55 43 42 33 40 41 36 37 37 40 41 42 43 45 48 51 52 50 53 53 57 57 55 57 56 58 60 65 67 58 50 31 11 2 9 15 13 16
77 77 72 71 68 58 66 66 63 58 53 46 44 39 38 36 41 40 42 36 36 39 41 43 44 44 45 46 48 50 53 49 51 53 53 58 60 62 54 46 28 13 5 4 5 7 10
80 77 72 72 69 73 66 74 69 67 62 56 50 48 43 43 48 46 49 36 37 40 40 42 47 49 45 45 44 46 46 45 47 48 53 55 59 59 54 43 28 9 8 8 6 2 7
88 83 81 83 67 67 70 74 77 72 71 66 58 53 54 47 47 50 49 50 43 42 43 33 38 37 42 41 41 43 44 43 45 43 49 52 55 57 55 39 29 13 8 6 6 2 5
98 92 85 77 84 74 71 74 71 79 76 74 70 63 61 60 50 53 52 55 56 46 48 46 39 40 43 43 38 43 39 42 39 40 46 48 51 55 54 36 31 17 10 9 8 6 7
86 83 88 89 89 79 82 73 72 75 72 73 80 74 70 66 60 58 56 56 57 53 51 50 47 45 40 41 46 47 41 37 37 39 42 43 48 52 50 38 32 16 13 13 13 10 9
93 93 95 87 91 86 82 87 85 85 83 80 78 76 73 73 70 64 63 60 59 54 51 49 50 47 47 53 49 43 43 41 35 40 41 41 46 50 46 46 30 24 8 12 12 13 12
107 105 103 102 100 101 101 98 92 90 89 87 84 87 86 80 76 74 74 68 65 56 52 50 50 53 53 55 48 43 41 41 40 40 39 42 46 48 46 46 34 27 15 10 15 14 14
123 120 117 114 111 113 111 108 106 105 104 98 96 95 94 88 82 74 79 73 68 57 57 66 74 72 71 62 59 47 43 43 43 40 40 40 41 44 46 42 38 26 22 11 13 17 18
128 131 132 134 134 133 133 128 124 118 113 108 109 107 101 96 87 89 80 74 71 69 66 73 76 75 73 67 62 53 44 44 41 42 40 40 44 45 41 42 42 28 23 18 15 17 19
110 110 110 116 125 127 128 128 128 127 129 125 120 116 113 103 100 105 94 88 82 72 73 79 80 80 77 71 63 56 43 44 42 39 42 41 41 43 46 40 37 31 23 23 20 19 20
102 102 102 103 105 107 109 111 117 124 127 124 123 128 118 112 114 111 105 100 94 86 92 87 87 85 81 78 70 64 55 44 44 41 43 41 40 40 44 40 36 34 25 21 19 20 20
95 96 97 98 96 98 100 102 104 107 113 116 121 121 128 126 122 130 122 112 100 99 96 93 92 77 66 67 72 65 54 45 45 45 41 41 38 42 46 44 35 37 23 22 18 18 22
89 90 91 93 93 93 96 97 97 100 106 108 111 111 113 113 114 118 117 102 83 90 94 89 81 66 63 63 63 62 52 48 44 43 42 39 34 40 48 40 34 36 23 21 23 21 21
85 87 88 89 89 90 91 91 94 98 100 106 106 104 99 105 114 119 106 91 82 81 88 83 79 68 63 54 57 51 50 47 44 42 41 37 35 36 44 39 34 36 25 24 23 23 22
81 84 88 89 89 87 87 87 89 91 96 99 100 97 94 102 110 99 90 81 75 72 81 76 73 68 61 57 54 54 50 47 43 41 40 38 36 37 40 41 35 34 28 22 19 26 27
72 75 81 83 86 87 86 83 85 86 88 93 91 90 95 107 107 87 77 77 75 71 71 71 72 71 66 61 51 58 50 46 43 43 42 40 37 37 39 40 32 31 33 26 21 24 33
69 68 69 73 79 80 82 82 81 83 84 85 84 88 96 102 82 76 78 74 70 66 69 67 71 73 69 65 61 59 58 49 47 44 46 42 39 40 41 41 34 37 34 29 25 20 24
63 63 65 66 72 74 75 77 79 81 79 78 78 81 88 77 71 71 69 70 72 67 69 70 67 72 72 66 62 63 61 53 50 47 46 45 41 39 43 43 37 37 30 29 29 27 23
54 56 59 63 66 69 69 72 76 78 75 72 70 72 73 71 69 75 72 72 70 70 72 68 60 64 74 65 62 65 58 55 51 47 41 40 39 39 42 44 40 37 33 33 33 32 28
46 50 55 57 60 62 65 66 72 70 65 57 59 66 66 66 68 75 69 75 73 74 68 65 62 61 64 63 66 62 57 54 49 45 42 42 41 40 42 46 39 41 37 31 28 29 27
40 46 51 53 53 56 58 60 63 60 50 56 62 64 62 65 73 68 77 81 79 76 74 65 64 62 61 64 64 60 56 53 47 44 42 45 44 44 42 43 40 44 36 31 27 26 29
34 39 42 45 48 49 51 54 53 49 51 58 61 62 61 71 76 77 83 83 84 81 77 73 69 62 69 65 60 59 53 51 49 47 45 46 46 43 42 43 38 44 40 38 28 28 34
29 33 36 38 42 44 44 46 46 48 56 58 60 57 62 72 75 80 86 86 84 80 80 72 69 65 64 62 59 55 53 51 49 48 47 49 47 46 45 45 38 45 41 36 33 34 32
24 28 31 34 38 39 41 43 46 52 56 55 53 55 64 72 77 82 87 86 87 83 81 75 70 72 66 63 58 58 56 54 51 48 47 48 49 45 44 43 39 44 43 39 39 38 39
22 27 30 33 37 40 43 44 47 50 49 48 51 57 66 75 80 86 95 93 91 84 80 75 77 70 64 64 61 57 54 50 45 43 45 47 47 46 46 45 44 47 45 44 44 43 41
23 28 33 37 39 40 41 43 44 44 44 47 53 61 70 78 77 80 89 91 90 86 87 80 70 68 64 64 58 57 52 48 45 44 46 47 47 48 48 45 47 48 48 46 47 43 40

GFSGBSN_250_spd_036.txt.gz
Wind_Speed
62 66 68 62 61 59 57 54 49 50 43 44 43 39 42 43 44 46 45 46 45 45 47 47 47 46 45 42 41 45 47 50 51 51 54 52 53 58 57 65 54 49 32 14 3 2 4
66 66 66 67 64 63 60 58 56 52 50 47 41 35 34 39 42 43 44 39 43 44 45 46 42 36 40 39 39 41 47 49 49 48 50 47 50 53 55 64 50 46 28 12 4 3 4
71 71 70 70 70 66 64 62 59 59 55 54 48 44 39 30 35 41 39 36 34 29 29 35 37 32 36 36 37 42 46 42 41 43 45 45 45 48 54 59 46 42 29 7 2 4 6
78 77 76 75 75 72 70 68 66 64 63 60 57 52 48 44 39 34 37 28 29 28 35 28 26 31 35 37 41 38 37 38 39 41 41 40 42 45 53 57 46 40 27 13 9 10 6
87 82 82 84 81 81 79 76 73 70 64 63 62 60 55 49 43 40 39 35 35 34 32 33 35 33 29 29 28 27 31 35 35 38 36 37 40 44 50 56 47 38 29 19 13 8 2
91 88 87 88 85 81 81 80 76 75 72 65 67 68 64 59 54 50 44 42 40 39 36 36 42 37 33 33 32 33 28 32 36 35 35 37 38 41 45 53 49 37 32 17 9 8 7
93 90 89 89 87 88 85 86 82 80 72 68 75 72 70 67 61 57 53 49 45 42 42 41 41 42 44 39 34 34 36 38 38 39 36 39 38 43 43 50 47 38 31 22 9 8 8
95 93 92 92 92 91 89 90 90 86 85 82 79 75 73 75 73 68 61 59 53 47 47 46 42 45 45 45 35 33 37 44 46 40 39 40 40 41 42 48 46 40 30 31 15 10 8
99 99 100 99 97 96 94 95 96 94 86 79 78 77 76 77 77 74 70 64 62 54 52 51 43 46 47 44 34 36 47 50 49 47 43 40 41 42 43 44 47 38 29 28 29 11 11
103 99 99 97 96 91 90 87 82 79 72 75 79 76 79 80 78 78 78 76 72 66 57 57 52 43 47 40 38 45 55 57 58 52 46 41 40 40 44 44 43 35 29 23 29 18 13
111 109 108 107 105 103 98 93 88 90 87 81 93 87 83 84 77 77 77 76 74 73 68 60 57 48 53 47 49 53 56 62 60 53 50 39 41 39 44 45 42 45 33 21 24 23 18
119 119 119 118 116 117 116 110 104 98 99 97 92 93 91 89 85 87 83 81 75 76 66 60 62 56 55 54 53 57 61 59 62 60 57 46 47 40 45 45 41 45 32 24 21 23 22
108 109 111 112 115 117 122 124 123 117 114 104 105 101 101 95 95 95 92 89 87 70 63 65 65 63 63 58 59 63 62 62 66 65 63 59 49 44 46 45 40 42 32 27 20 21 24
100 100 101 101 102 103 107 109 113 117 122 119 117 113 112 109 106 103 101 96 91 73 74 67 67 67 69 66 61 69 66 67 64 62 59 59 63 52 42 44 38 41 33 30 20 20 21
93 93 94 94 94 95 96 99 101 105 106 115 124 123 119 115 119 116 111 111 89 84 82 81 78 78 74 71 71 73 69 66 70 65 55 55 67 55 38 40 37 38 37 32 23 21 22
89 89 89 90 92 92 91 92 95 99 103 105 110 116 121 126 131 132 131 124 106 100 97 92 89 83 82 82 82 81 75 69 61 52 51 54 61 49 36 37 35 38 38 30 27 23 24
85 86 86 85 85 84 85 87 92 96 98 101 105 106 103 117 132 141 132 115 109 112 106 98 98 92 90 86 84 84 75 60 57 60 48 50 54 49 36 35 36 35 33 30 31 24 24
81 83 84 84 85 85 84 83 84 88 92 96 99 96 102 111 117 119 110 101 104 107 116 109 107 99 97 92 87 83 70 63 61 58 56 47 44 52 36 35 34 35 38 36 30 29 27
73 76 77 82 84 86 87 85 83 84 87 89 88 94 99 108 113 101 96 93 94 98 104 105 108 109 101 92 92 80 72 62 54 59 54 46 39 43 36 35 33 37 40 37 30 28 24
70 71 71 73 75 81 85 85 85 84 82 84 82 87 93 97 95 94 90 89 89 91 93 96 97 102 100 92 82 80 71 60 58 61 48 45 41 41 39 36 36 39 38 37 28 26 29
67 67 68 69 71 73 77 81 82 83 80 76 74 78 79 79 81 85 82 85 84 81 84 91 89 86 87 81 76 70 61 59 60 61 54 50 41 43 41 37 35 36 40 39 35 30 26
58 59 62 64 65 66 69 75 71 74 77 71 67 67 70 72 70 73 75 74 79 80 80 82 82 83 79 73 68 66 67 62 60 58 61 54 49 45 42 39 34 34 41 36 35 31 28
48 50 54 56 59 62 63 69 69 70 71 58 60 61 63 63 64 64 65 73 75 78 77 78 83 82 75 68 68 68 73 72 68 60 59 53 49 47 44 37 33 38 41 38 38 33 28
42 44 46 49 51 55 58 62 66 64 54 46 64 58 59 58 57 57 61 72 75 78 77 81 81 77 69 69 66 63 75 72 68 65 64 55 52 48 43 35 34 43 39 42 38 34 29
36 37 39 42 45 51 54 56 56 54 53 52 57 51 56 55 60 63 62 70 81 86 89 83 82 76 73 72 68 65 70 72 67 62 61 54 49 46 43 37 40 43 48 41 38 40 25
29 30 32 35 40 44 48 51 50 52 51 49 55 57 57 58 62 62 65 74 78 82 88 87 89 83 75 73 74 63 65 64 67 62 58 51 50 46 42 40 42 47 45 46 38 42 30
21 24 26 29 33 38 43 46 46 48 46 52 54 56 53 56 54 58 68 78 84 91 89 89 89 81 77 75 70 60 62 57 61 62 54 52 49 46 46 42 44 47 46 47 39 44 38
16 20 23 28 32 35 39 42 44 43 49 52 51 51 48 53 56 61 74 83 89 93 95 92 94 87 80 75 67 62 60 61 60 54 54 53 52 49 46 43 42 50 49 44 44 40 42
15 20 25 29 32 35 39 40 43 48 48 46 46 47 50 54 56 66 78 85 90 95 97 93 83 83 76 72 65 61 62 69 66 52 54 53 51 51 51 49 48 48 47 45 44 43 42